F5MAP-5 Weather Reports


Display with metric or nautical units.
time (UTC)temp
F
wind
direction
speed
MPH
gust
MPH
rain 1hr
in
rain 24hr
in
rain mn
in
humidity
%
barometer
mb
20260508211213 60 325 3.0 8.0 0.00 0.00 0.00 74 1016.2
20260508205214 61 5 2.0 6.0 0.00 0.00 0.00 72 1016.0
20260508204214 61 26 4.0 10.0 0.00 0.00 0.00 72 1016.0
20260508203214 62 360 3.0 9.0 0.00 0.00 0.00 71 1016.1
20260508202214 62 5 2.0 4.0 0.00 0.00 0.00 70 1016.1
20260508201214 62 5 2.0 5.0 0.00 0.00 0.00 70 1016.0
20260508200214 63 36 3.0 6.0 0.00 0.00 0.00 68 1015.9
20260508194214 64 29 2.0 6.0 0.00 0.00 0.00 67 1015.5
20260508193214 64 32 2.0 9.0 0.00 0.00 0.00 66 1015.4
20260508192214 65 33 2.0 8.0 0.00 0.00 0.00 65 1015.3
20260508191214 65 9 4.0 8.0 0.00 0.00 0.00 65 1015.1
20260508190214 65 351 4.0 8.0 0.00 0.00 0.00 64 1015.0
20260508183213 66 36 3.0 9.0 0.00 0.00 0.00 63 1014.7
20260508182213 67 36 3.0 10.0 0.00 0.00 0.00 62 1014.6
20260508181213 67 66 4.0 8.0 0.00 0.00 0.00 61 1014.4
20260508175213 68 81 6.0 11.0 0.00 0.00 0.00 58 1014.1
20260508174213 68 55 5.0 11.0 0.00 0.00 0.00 57 1014.0
20260508173213 68 42 4.0 9.0 0.00 0.00 0.00 56 1013.9
20260508172213 69 55 5.0 9.0 0.00 0.00 0.00 56 1013.7
20260508171213 69 52 4.0 9.0 0.00 0.00 0.00 55 1013.6
20260508170212 69 76 3.0 9.0 0.00 0.00 0.00 55 1013.6
20260508165213 69 67 3.0 8.0 0.00 0.00 0.00 54 1013.5
20260508164212 69 12 3.0 8.0 0.00 0.00 0.00 54 1013.5
20260508163212 69 72 4.0 8.0 0.00 0.00 0.00 54 1013.4
20260508162212 69 33 3.0 9.0 0.00 0.00 0.00 54 1013.4
20260508161212 70 12 6.0 10.0 0.00 0.00 0.00 56 1013.4
20260508155212 70 60 3.0 5.0 0.00 0.00 0.00 53 1013.6
20260508154212 70 33 3.0 8.0 0.00 0.00 0.00 52 1013.6
20260508153212 70 344 3.0 8.0 0.00 0.00 0.00 52 1013.5
20260508152212 70 5 4.0 10.0 0.00 0.00 0.00 53 1013.5
20260508151212 70 76 2.0 8.0 0.00 0.00 0.00 50 1013.6
20260508150213 70 57 3.0 6.0 0.00 0.00 0.00 51 1013.7
20260508145212 70 331 3.0 6.0 0.00 0.00 0.00 50 1013.8
20260508144212 70 324 2.0 7.0 0.00 0.00 0.00 50 1014.1
20260508143212 70 67 2.0 10.0 0.00 0.00 0.00 52 1014.1
20260508141212 71 36 4.0 7.0 0.00 0.00 0.00 54 1014.2
20260508140212 70 19 3.0 8.0 0.00 0.00 0.00 55 1014.4
20260508135214 70 90 4.0 9.0 0.00 0.00 0.00 56 1014.4
20260508134213 71 95 3.0 8.0 0.00 0.00 0.00 55 1014.4
20260508133213 71 77 3.0 8.0 0.00 0.00 0.00 54 1014.5
20260508132213 71 36 4.0 8.0 0.00 0.00 0.00 56 1014.6
20260508130212 71 39 2.0 7.0 0.00 0.00 0.00 57 1014.8
20260508125213 70 27 3.0 9.0 0.00 0.00 0.00 58 1015.0
20260508124212 70 70 1.0 6.0 0.00 0.00 0.00 57 1015.1
20260508123212 70 172 4.0 8.0 0.00 0.00 0.00 59 1015.2
20260508122212 69 51 3.0 10.0 0.00 0.00 0.00 61 1015.3
20260508121212 69 44 3.0 9.0 0.00 0.00 0.00 61 1015.4
20260508120212 68 44 2.0 7.0 0.00 0.00 0.00 63 1015.5
20260508115212 69 38 4.0 10.0 0.00 0.00 0.00 62 1015.6
20260508114212 68 53 4.0 8.0 0.00 0.00 0.00 63 1015.7
20260508113217 68 76 3.0 10.0 0.00 0.00 0.00 63 1015.7
20260508111212 67 59 2.0 6.0 0.00 0.00 0.00 64 1016.0
20260508110212 66 340 2.0 6.0 0.00 0.00 0.00 66 1016.1
20260508105212 66 80 3.0 7.0 0.00 0.00 0.00 66 1016.1
20260508104212 65 36 2.0 5.0 0.00 0.00 0.00 69 1016.2
20260508103212 64 67 3.0 6.0 0.00 0.00 0.00 69 1016.3
20260508101212 63 51 3.0 4.0 0.00 0.00 0.00 72 1016.5
20260508100212 62 48 2.0 5.0 0.00 0.00 0.00 76 1016.5
20260508095211 61 314 2.0 5.0 0.00 0.00 0.00 78 1016.6
20260508094211 60 14 2.0 4.0 0.00 0.00 0.00 82 1016.7
20260508093211 59 52 3.0 6.0 0.00 0.00 0.00 85 1016.7
20260508092211 58 63 4.0 7.0 0.00 0.00 0.00 87 1016.8
20260508091211 56 88 2.0 5.0 0.00 0.00 0.00 89 1016.8
20260508090211 55 360 2.0 6.0 0.00 0.00 0.00 90 1017.1
20260508085212 55 355 2.0 5.0 0.00 0.00 0.00 90 1017.0
20260508084212 54 69 2.0 4.0 0.00 0.00 0.00 91 1017.0
20260508083212 53 96 3.0 6.0 0.00 0.00 0.00 92 1017.1
20260508082212 52 92 2.0 4.0 0.00 0.00 0.00 92 1017.0
20260508081212 52 96 3.0 5.0 0.00 0.00 0.00 93 1016.9
20260508080212 51 76 2.0 5.0 0.00 0.00 0.00 93 1017.0
20260508074212 50 63 3.0 4.0 0.00 0.00 0.00 93 1017.0
20260508073212 50 93 2.0 6.0 0.00 0.00 0.00 93 1016.9
20260508072212 50 28 4.0 7.0 0.00 0.00 0.00 93 1017.0
20260508070212 50 63 3.0 6.0 0.00 0.00 0.00 93 1016.9
20260508065212 50 5 2.0 4.0 0.00 0.00 0.00 93 1017.0
20260508064212 49 36 3.0 6.0 0.00 0.00 0.00 93 1016.9
20260508063212 49 57 2.0 7.0 0.00 0.00 0.00 93 1016.9
20260508062213 49 15 1.0 6.0 0.00 0.00 0.00 93 1016.8
20260508061212 49 338 3.0 6.0 0.00 0.00 0.00 93 1016.8
20260508060211 49 70 3.0 6.0 0.00 0.00 0.00 93 1016.7
20260508055211 49 55 4.0 6.0 0.00 0.00 0.00 93 1016.6
20260508053211 48 31 0.0 3.0 0.00 0.00 0.00 93 1016.5
20260508052211 47 28 0.0 3.0 0.00 0.00 0.00 93 1016.6
20260508051211 47 59 0.0 3.0 0.00 0.00 0.00 92 1016.5
20260508050211 46 44 0.0 0.0 0.00 0.00 0.00 92 1016.5
20260508045212 46 350 1.0 3.0 0.00 0.00 0.00 92 1016.5
20260508044211 46 57 0.0 0.0 0.00 0.00 0.00 92 1016.4
20260508043211 46 44 0.0 0.0 0.00 0.00 0.00 92 1016.3
20260508042211 46 30 2.0 4.0 0.00 0.00 0.00 92 1016.3
20260508041211 46 41 2.0 3.0 0.00 0.00 0.00 92 1016.4
20260508040211 47 20 3.0 4.0 0.00 0.00 0.00 91 1016.2
20260508035211 47 55 2.0 4.0 0.00 0.01 0.00 91 1016.2
20260508034210 47 34 0.0 0.0 0.00 0.01 0.00 91 1016.2
20260508033211 47 66 0.0 3.0 0.00 0.01 0.00 91 1016.1
20260508032211 47 37 0.0 0.0 0.00 0.01 0.00 91 1016.1
20260508031210 47 55 0.0 4.0 0.00 0.01 0.00 91 1015.9
20260508030211 47 19 1.0 5.0 0.00 0.01 0.00 91 1016.0
20260508025211 47 35 3.0 5.0 0.00 0.01 0.00 91 1015.9
20260508024210 47 41 2.0 5.0 0.00 0.01 0.00 91 1016.0
20260508023211 47 32 1.0 4.0 0.00 0.01 0.00 90 1016.0
20260508022210 47 49 0.0 0.0 0.00 0.01 0.00 90 1016.0
20260508021210 47 42 0.0 2.0 0.00 0.01 0.00 90 1015.9
20260508020211 47 19 0.0 0.0 0.00 0.01 0.00 90 1015.8
20260508015211 47 17 0.0 0.0 0.00 0.02 0.00 90 1015.8
20260508014211 47 57 0.0 0.0 0.00 0.02 0.00 90 1015.9
20260508013211 47 61 0.0 0.0 0.00 0.02 0.00 90 1015.8
20260508012211 47 30 0.0 3.0 0.00 0.02 0.00 90 1015.7
20260508011211 47 49 0.0 2.0 0.00 0.02 0.00 89 1015.7
20260508010211 47 74 0.0 0.0 0.00 0.02 0.00 89 1015.7
20260508005211 47 33 0.0 0.0 0.00 0.03 0.00 89 1015.7
20260508004212 47 33 0.0 0.0 0.00 0.03 0.00 89 1015.9
20260508003211 47 34 0.0 0.0 0.00 0.03 0.00 88 1015.8
20260508002210 47 30 0.0 0.0 0.00 0.03 0.00 88 1015.8
20260508001211 48 29 0.0 0.0 0.00 0.03 0.00 88 1015.8
20260508000212 48 34 0.0 0.0 0.00 0.03 0.00 88 1015.8
20260507235210 48 67 0.0 0.0 0.00 0.04 0.00 88 1015.9
20260507234210 48 67 0.0 0.0 0.00 0.04 0.00 88 1015.9
20260507233210 49 67 0.0 0.0 0.00 0.04 0.00 88 1016.1
20260507232210 49 31 0.0 0.0 0.00 0.04 0.00 88 1016.2
20260507231211 49 355 0.0 0.0 0.00 0.04 0.00 88 1016.3
20260507230210 50 355 0.0 0.0 0.00 0.04 0.00 88 1016.2
20260507225210 50 333 0.0 4.0 0.00 0.04 0.00 88 1016.2
20260507224210 50 348 2.0 4.0 0.00 0.04 0.00 88 1016.2
20260507223211 50 342 2.0 4.0 0.00 0.04 0.00 87 1016.3
20260507222215 50 355 2.0 4.0 0.00 0.04 0.00 87 1016.4
20260507221215 50 345 3.0 4.0 0.00 0.04 0.00 87 1016.5
20260507220215 51 349 2.0 3.0 0.00 0.04 0.00 86 1016.4
20260507215215 51 336 0.0 3.0 0.00 0.06 0.06 86 1016.4
20260507214215 51 343 2.0 4.0 0.00 0.06 0.06 86 1016.4
20260507213215 51 347 3.0 4.0 0.00 0.06 0.06 86 1016.3
20260507212215 51 342 1.0 4.0 0.00 0.06 0.06 85 1016.3